Year,Month,Day,Hour,Minute,Value (Times are PST for temperature in C)
2013,07,29,00,03,14.10
2013,07,29,00,04,14.20
2013,07,29,00,05,14.20
2013,07,29,00,06,14.20
2013,07,29,00,08,14.20
2013,07,29,00,09,14.30
2013,07,29,00,10,14.30
2013,07,29,00,11,14.30
2013,07,29,00,12,14.20
2013,07,29,00,13,14.30
2013,07,29,00,14,14.30
2013,07,29,00,15,14.30
2013,07,29,00,17,14.30
2013,07,29,00,18,14.30
2013,07,29,00,19,14.30
2013,07,29,00,20,14.30
2013,07,29,00,21,14.40
2013,07,29,00,23,14.40
2013,07,29,00,24,14.40
2013,07,29,00,25,14.40
2013,07,29,00,26,14.40
2013,07,29,00,27,14.40
2013,07,29,00,28,14.40
2013,07,29,00,29,14.40
2013,07,29,00,30,14.40
2013,07,29,00,32,14.40
2013,07,29,00,33,14.40
2013,07,29,00,34,14.40
2013,07,29,00,35,14.40
2013,07,29,00,37,14.40
2013,07,29,00,38,14.40
2013,07,29,00,39,14.40
2013,07,29,00,41,14.40
2013,07,29,00,42,14.40
2013,07,29,00,43,14.40
2013,07,29,00,45,14.40
2013,07,29,00,46,14.40
2013,07,29,00,47,14.30
2013,07,29,00,48,14.40
2013,07,29,00,50,14.30
2013,07,29,00,51,14.30
2013,07,29,00,52,14.30
2013,07,29,00,53,14.30
2013,07,29,00,55,14.30
2013,07,29,00,56,14.30
2013,07,29,00,57,14.30
2013,07,29,00,58,14.30
2013,07,29,01,00,14.30
2013,07,29,01,01,14.20
2013,07,29,01,02,14.20
2013,07,29,01,03,14.20
2013,07,29,01,05,14.20
2013,07,29,01,06,14.20
2013,07,29,01,07,14.20
2013,07,29,01,08,14.10
2013,07,29,01,10,14.10
2013,07,29,01,11,14.10
2013,07,29,01,12,14.10
2013,07,29,01,13,14.10
2013,07,29,01,15,14.10
2013,07,29,01,16,14.00
2013,07,29,01,17,14.00
2013,07,29,01,18,13.90
2013,07,29,01,20,13.90
2013,07,29,01,21,13.90
2013,07,29,01,22,13.90
2013,07,29,01,23,13.90
2013,07,29,01,24,13.80
2013,07,29,01,26,13.80
2013,07,29,01,27,13.80
2013,07,29,01,29,13.70
2013,07,29,01,30,13.70
2013,07,29,01,31,13.70
2013,07,29,01,32,13.70
2013,07,29,01,34,13.60
2013,07,29,01,35,13.60
2013,07,29,01,36,13.60
2013,07,29,01,37,13.60
2013,07,29,01,38,13.60
2013,07,29,01,39,13.60
2013,07,29,01,40,13.60
2013,07,29,01,41,13.50
2013,07,29,01,42,13.50
2013,07,29,01,44,13.50
2013,07,29,01,45,13.40
2013,07,29,01,46,13.40
2013,07,29,01,48,13.40
2013,07,29,01,49,13.40
2013,07,29,01,50,13.40
2013,07,29,01,51,13.40
2013,07,29,01,52,13.40
2013,07,29,01,54,13.40
2013,07,29,01,55,13.40
2013,07,29,01,56,13.40
2013,07,29,01,57,13.40
2013,07,29,01,59,13.30
2013,07,29,02,00,13.30
2013,07,29,02,01,13.30
2013,07,29,02,03,13.30
2013,07,29,02,04,13.30
2013,07,29,02,05,13.30
2013,07,29,02,06,13.30
2013,07,29,02,08,13.30
2013,07,29,02,09,13.30
2013,07,29,02,10,13.20
2013,07,29,02,11,13.20
2013,07,29,02,13,13.20
2013,07,29,02,14,13.20
2013,07,29,02,15,13.20
2013,07,29,02,16,13.20
2013,07,29,02,18,13.20
2013,07,29,02,19,13.10
2013,07,29,02,20,13.10
2013,07,29,02,22,13.10
2013,07,29,02,23,13.10
2013,07,29,02,24,13.10
2013,07,29,02,25,13.10
2013,07,29,02,27,13.00
2013,07,29,02,28,13.00
2013,07,29,02,29,13.00
2013,07,29,02,32,12.90
2013,07,29,02,33,12.90
2013,07,29,02,34,12.90
2013,07,29,02,37,12.80
2013,07,29,02,38,12.80
2013,07,29,02,39,12.80
2013,07,29,02,41,12.70
2013,07,29,02,42,12.70
2013,07,29,02,43,12.70
2013,07,29,02,44,12.70
2013,07,29,02,46,12.70
2013,07,29,02,48,12.60
2013,07,29,02,49,12.60
2013,07,29,02,50,12.60
2013,07,29,02,52,12.50
2013,07,29,02,53,12.50
2013,07,29,02,54,12.50
2013,07,29,02,55,12.50
2013,07,29,02,57,12.40
2013,07,29,02,59,12.40
2013,07,29,03,00,12.40
2013,07,29,03,02,12.40
2013,07,29,03,03,12.30
2013,07,29,03,04,12.30
2013,07,29,03,05,12.30
2013,07,29,03,07,12.30
2013,07,29,03,08,12.20
2013,07,29,03,09,12.20
2013,07,29,03,10,12.20
2013,07,29,03,12,12.20
2013,07,29,03,13,12.10
2013,07,29,03,14,12.10
2013,07,29,03,16,12.10
2013,07,29,03,18,12.10
2013,07,29,03,19,12.00
2013,07,29,03,21,12.00
2013,07,29,03,23,11.90
2013,07,29,03,24,11.90
2013,07,29,03,26,11.90
2013,07,29,03,29,11.90
2013,07,29,03,31,11.90
2013,07,29,03,32,11.90
2013,07,29,03,33,11.80
2013,07,29,03,34,11.80
2013,07,29,03,35,11.80
2013,07,29,03,36,11.80
2013,07,29,03,37,11.80
2013,07,29,03,38,11.80
2013,07,29,03,39,11.70
2013,07,29,03,41,11.70
2013,07,29,03,42,11.70
2013,07,29,03,43,11.70
2013,07,29,03,44,11.70
2013,07,29,03,45,11.70
2013,07,29,03,46,11.70
2013,07,29,03,48,11.60
2013,07,29,03,49,11.60
2013,07,29,03,50,11.60
2013,07,29,03,52,11.60
2013,07,29,03,53,11.60
2013,07,29,03,54,11.50
2013,07,29,03,55,11.50
2013,07,29,03,56,11.50
2013,07,29,03,57,11.50
2013,07,29,03,58,11.50
2013,07,29,03,59,11.50
2013,07,29,04,00,11.40
2013,07,29,04,01,11.40
2013,07,29,04,02,11.40
2013,07,29,04,03,11.40
2013,07,29,04,04,11.40
2013,07,29,04,05,11.40
2013,07,29,04,06,11.40
2013,07,29,04,07,11.40
2013,07,29,04,08,11.40
2013,07,29,04,09,11.30
2013,07,29,04,10,11.30
2013,07,29,04,11,11.30
2013,07,29,04,12,11.30
2013,07,29,04,13,11.30
2013,07,29,04,14,11.30
2013,07,29,04,15,11.30
2013,07,29,04,16,11.30
2013,07,29,04,17,11.30
2013,07,29,04,18,11.30
2013,07,29,04,19,11.30
2013,07,29,04,20,11.30
2013,07,29,04,22,11.30
2013,07,29,04,23,11.20
2013,07,29,04,24,11.20
2013,07,29,04,25,11.20
2013,07,29,04,26,11.20
2013,07,29,04,27,11.20
2013,07,29,04,28,11.20
2013,07,29,04,29,11.20
2013,07,29,04,30,11.20
2013,07,29,04,31,11.20
2013,07,29,04,32,11.20
2013,07,29,04,33,11.10
2013,07,29,04,34,11.10
2013,07,29,04,36,11.10
2013,07,29,04,37,11.10
2013,07,29,04,38,11.10
2013,07,29,04,39,11.10
2013,07,29,04,41,11.10
2013,07,29,04,42,11.10
2013,07,29,04,43,11.10
2013,07,29,04,44,11.10
2013,07,29,04,45,11.10
2013,07,29,04,46,11.10
2013,07,29,04,47,11.00
2013,07,29,04,48,11.00
2013,07,29,04,49,11.00
2013,07,29,04,50,11.00
2013,07,29,04,51,11.00
2013,07,29,04,52,11.00
2013,07,29,04,53,11.00
2013,07,29,04,54,11.00
2013,07,29,04,55,10.90
2013,07,29,04,56,10.90
2013,07,29,04,57,11.00
2013,07,29,04,58,10.90
2013,07,29,04,59,10.90
2013,07,29,05,00,10.90
2013,07,29,05,01,10.90
2013,07,29,05,02,10.90
2013,07,29,05,03,10.90
2013,07,29,05,04,10.90
2013,07,29,05,05,10.90
2013,07,29,05,06,10.90
2013,07,29,05,07,10.90
2013,07,29,05,08,10.90
2013,07,29,05,09,10.90
2013,07,29,05,10,10.90
2013,07,29,05,11,10.90
2013,07,29,05,12,10.90
2013,07,29,05,13,10.90
2013,07,29,05,14,10.80
2013,07,29,05,15,10.90
2013,07,29,05,16,10.80
2013,07,29,05,17,10.80
2013,07,29,05,19,10.80
2013,07,29,05,20,10.80
2013,07,29,05,21,10.80
2013,07,29,05,22,10.80
2013,07,29,05,24,10.80
2013,07,29,05,25,10.80
2013,07,29,05,26,10.80
2013,07,29,05,27,10.80
2013,07,29,05,28,10.80
2013,07,29,05,29,10.80
2013,07,29,05,30,10.80
2013,07,29,05,31,10.80
2013,07,29,05,32,10.80
2013,07,29,05,33,10.80
2013,07,29,05,34,10.80
2013,07,29,05,35,10.80
2013,07,29,05,36,10.80
2013,07,29,05,38,10.80
2013,07,29,05,39,10.80
2013,07,29,05,40,10.80
2013,07,29,05,41,10.70
2013,07,29,05,42,10.70
2013,07,29,05,43,10.70
2013,07,29,05,44,10.70
2013,07,29,05,45,10.70
2013,07,29,05,46,10.70
2013,07,29,05,47,10.70
2013,07,29,05,48,10.70
2013,07,29,05,49,10.70
2013,07,29,05,50,10.70
2013,07,29,05,52,10.70
2013,07,29,05,53,10.70
2013,07,29,05,54,10.70
2013,07,29,05,55,10.70
2013,07,29,05,56,10.70
2013,07,29,05,57,10.70
2013,07,29,05,58,10.70
2013,07,29,05,59,10.70
2013,07,29,06,01,10.70
2013,07,29,06,02,10.70
2013,07,29,06,03,10.70
2013,07,29,06,04,10.70
2013,07,29,06,06,10.70
2013,07,29,06,07,10.70
2013,07,29,06,08,10.70
2013,07,29,06,09,10.70
2013,07,29,06,10,10.70
2013,07,29,06,11,10.70
2013,07,29,06,12,10.70
2013,07,29,06,13,10.70
2013,07,29,06,14,10.70
2013,07,29,06,15,10.70
2013,07,29,06,17,10.70
2013,07,29,06,18,10.70
2013,07,29,06,19,10.70
2013,07,29,06,20,10.70
2013,07,29,06,22,10.70
2013,07,29,06,23,10.70
2013,07,29,06,24,10.70
2013,07,29,06,25,10.70
2013,07,29,06,26,10.70
2013,07,29,06,27,10.70
2013,07,29,06,28,10.70
2013,07,29,06,29,10.70
2013,07,29,06,30,10.70
2013,07,29,06,31,10.70
2013,07,29,06,32,10.80
2013,07,29,06,33,10.80
2013,07,29,06,34,10.80
2013,07,29,06,36,10.80
2013,07,29,06,37,10.80
2013,07,29,06,38,10.80
2013,07,29,06,40,10.80
2013,07,29,06,41,10.80
2013,07,29,06,42,10.80
2013,07,29,06,44,10.80
2013,07,29,06,45,10.80
2013,07,29,06,46,10.80
2013,07,29,06,47,10.80
2013,07,29,06,49,10.90
2013,07,29,06,50,10.90
2013,07,29,06,51,10.90
2013,07,29,06,52,10.90
2013,07,29,06,53,10.90
2013,07,29,06,54,11.00
2013,07,29,06,55,11.00
2013,07,29,06,57,11.10
2013,07,29,07,04,11.30
2013,07,29,07,05,11.40
2013,07,29,07,06,11.40
2013,07,29,07,07,11.50
2013,07,29,07,09,11.60
2013,07,29,07,10,11.70
2013,07,29,07,11,11.80
2013,07,29,07,12,11.80
2013,07,29,07,13,11.80
2013,07,29,07,14,11.90
2013,07,29,07,15,12.00
2013,07,29,07,16,12.10
2013,07,29,07,17,12.10
2013,07,29,07,19,12.20
2013,07,29,07,20,12.30
2013,07,29,07,21,12.40
2013,07,29,07,22,12.40
2013,07,29,07,23,12.50
2013,07,29,07,25,12.60
2013,07,29,07,26,12.70
2013,07,29,07,27,12.80
2013,07,29,07,29,12.80
2013,07,29,07,30,12.90
2013,07,29,07,31,13.00
2013,07,29,07,32,13.10
2013,07,29,07,33,13.20
2013,07,29,07,34,13.20
2013,07,29,07,35,13.30
2013,07,29,07,36,13.40
2013,07,29,07,38,13.40
2013,07,29,07,39,13.60
2013,07,29,07,40,13.70
2013,07,29,07,41,13.70
2013,07,29,07,43,13.80
2013,07,29,07,44,13.90
2013,07,29,07,45,13.90
2013,07,29,07,46,14.00
2013,07,29,07,47,14.00
2013,07,29,07,49,14.00
2013,07,29,07,50,14.10
2013,07,29,07,51,14.10
2013,07,29,07,52,14.10
2013,07,29,07,54,14.10
2013,07,29,07,55,14.10
2013,07,29,07,56,14.20
2013,07,29,07,57,14.20
2013,07,29,07,59,14.20
2013,07,29,08,00,14.30
2013,07,29,08,01,14.30
2013,07,29,08,02,14.40
2013,07,29,08,03,14.50
2013,07,29,08,05,14.60
2013,07,29,08,07,14.70
2013,07,29,08,08,14.70
2013,07,29,08,10,14.80
2013,07,29,08,11,14.80
2013,07,29,08,12,14.80
2013,07,29,08,13,14.90
2013,07,29,08,15,14.90
2013,07,29,08,16,14.90
2013,07,29,08,17,14.90
2013,07,29,08,19,14.90
2013,07,29,08,20,14.90
2013,07,29,08,21,14.90
2013,07,29,08,22,15.00
2013,07,29,08,24,14.90
2013,07,29,08,25,14.90
2013,07,29,08,26,14.90
2013,07,29,08,27,15.00
2013,07,29,08,29,15.00
2013,07,29,08,30,15.10
2013,07,29,08,31,15.10
2013,07,29,08,32,15.10
2013,07,29,08,34,15.10
2013,07,29,08,35,15.20
2013,07,29,08,36,15.20
2013,07,29,08,37,15.20
2013,07,29,08,38,15.30
2013,07,29,08,39,15.30
2013,07,29,08,40,15.30
2013,07,29,08,41,15.30
2013,07,29,08,42,15.30
2013,07,29,08,43,15.30
2013,07,29,08,44,15.40
2013,07,29,08,45,15.40
2013,07,29,08,46,15.40
2013,07,29,08,48,15.40
2013,07,29,08,49,15.50
2013,07,29,08,50,15.60
2013,07,29,08,51,15.60
2013,07,29,08,52,15.70
2013,07,29,08,53,15.70
2013,07,29,08,54,15.70
2013,07,29,08,55,15.80
2013,07,29,08,56,15.90
2013,07,29,08,57,16.00
2013,07,29,08,58,16.00
2013,07,29,08,59,16.10
2013,07,29,09,00,16.00
2013,07,29,09,01,15.90
2013,07,29,09,02,15.90
2013,07,29,09,03,15.80
2013,07,29,09,04,15.80
2013,07,29,09,05,15.80
2013,07,29,09,06,15.80
2013,07,29,09,07,15.80
2013,07,29,09,09,15.90
2013,07,29,09,10,16.00
2013,07,29,09,11,16.10
2013,07,29,09,12,16.20
2013,07,29,09,13,16.30
2013,07,29,09,14,16.30
2013,07,29,09,16,16.40
2013,07,29,09,17,16.50
2013,07,29,09,18,16.40
2013,07,29,09,19,16.30
2013,07,29,09,21,16.20
2013,07,29,09,22,16.20
2013,07,29,09,24,16.10
2013,07,29,09,26,16.10
2013,07,29,09,27,16.10
2013,07,29,09,28,16.10
2013,07,29,09,30,16.10
2013,07,29,09,31,15.90
2013,07,29,09,32,15.90
2013,07,29,09,33,15.90
2013,07,29,09,34,15.80
2013,07,29,09,35,15.90
2013,07,29,09,36,15.90
2013,07,29,09,37,15.90
2013,07,29,09,38,16.00
2013,07,29,09,39,16.10
2013,07,29,09,40,16.10
2013,07,29,09,41,16.10
2013,07,29,09,42,16.10
2013,07,29,09,43,16.10
2013,07,29,09,44,16.10
2013,07,29,09,47,16.20
2013,07,29,09,49,16.20
2013,07,29,09,50,16.30
2013,07,29,09,51,16.40
2013,07,29,09,53,16.40
2013,07,29,09,54,16.40
2013,07,29,09,55,16.40
2013,07,29,09,56,16.40
2013,07,29,09,57,16.30
2013,07,29,09,58,16.30
2013,07,29,09,59,16.30
2013,07,29,10,00,16.30
2013,07,29,10,01,16.30
2013,07,29,10,02,16.30
2013,07,29,10,03,16.30
2013,07,29,10,04,16.30
2013,07,29,10,05,16.40
2013,07,29,10,06,16.40
2013,07,29,10,07,16.60
2013,07,29,10,08,16.70
2013,07,29,10,09,16.70
2013,07,29,10,11,16.80
2013,07,29,10,12,16.90
2013,07,29,10,13,16.90
2013,07,29,10,14,16.90
2013,07,29,10,15,16.90
2013,07,29,10,16,16.90
2013,07,29,10,17,16.90
2013,07,29,10,18,16.90
2013,07,29,10,20,16.90
2013,07,29,10,21,16.90
2013,07,29,10,22,16.90
2013,07,29,10,24,16.90
2013,07,29,10,25,16.90
2013,07,29,10,26,16.90
2013,07,29,10,28,16.90
2013,07,29,10,29,16.90
2013,07,29,10,31,16.90
2013,07,29,10,32,16.90
2013,07,29,10,33,16.90
2013,07,29,10,34,16.80
2013,07,29,10,35,16.80
2013,07,29,10,36,16.90
2013,07,29,10,37,16.90
2013,07,29,10,38,16.80
2013,07,29,10,39,16.80
2013,07,29,10,41,16.60
2013,07,29,10,43,16.50
2013,07,29,10,44,16.30
2013,07,29,10,45,16.30
2013,07,29,10,46,16.30
2013,07,29,10,48,16.40
2013,07,29,10,49,16.30
2013,07,29,10,50,16.30
2013,07,29,10,51,16.30
2013,07,29,10,52,16.30
2013,07,29,10,54,16.30
2013,07,29,10,56,16.40
2013,07,29,10,57,16.40
2013,07,29,10,58,16.40
2013,07,29,10,59,16.50
2013,07,29,11,00,16.60
2013,07,29,11,01,16.70
2013,07,29,11,02,16.70
2013,07,29,11,04,16.70
2013,07,29,11,06,16.80
2013,07,29,11,07,16.80
2013,07,29,11,08,16.70
2013,07,29,11,09,16.70
2013,07,29,11,10,16.70
2013,07,29,11,12,16.60
2013,07,29,11,13,16.60
2013,07,29,11,14,16.60
2013,07,29,11,15,16.60
2013,07,29,11,16,16.60
2013,07,29,11,17,16.70
2013,07,29,11,19,16.80
2013,07,29,11,20,16.90
2013,07,29,11,21,17.00
2013,07,29,11,22,16.90
2013,07,29,11,24,16.80
2013,07,29,11,25,16.80
2013,07,29,11,27,16.80
2013,07,29,11,29,16.80
2013,07,29,11,31,16.90
2013,07,29,11,32,17.10
2013,07,29,11,33,17.20
2013,07,29,11,35,17.20
2013,07,29,11,36,17.20
2013,07,29,11,37,17.20
2013,07,29,11,38,17.10
2013,07,29,11,40,17.10
2013,07,29,11,41,17.10
2013,07,29,11,42,17.20
2013,07,29,11,43,17.30
2013,07,29,11,45,17.30
2013,07,29,11,46,17.30
2013,07,29,11,47,17.40
2013,07,29,11,48,17.60
2013,07,29,11,50,17.60
2013,07,29,11,51,17.60
2013,07,29,11,52,17.60
2013,07,29,11,53,17.70
2013,07,29,11,55,17.70
2013,07,29,11,56,17.70
2013,07,29,11,57,17.70
2013,07,29,11,58,17.70
2013,07,29,12,00,17.80
2013,07,29,12,01,17.80
2013,07,29,12,02,17.80
2013,07,29,12,04,17.80
2013,07,29,12,05,17.60
2013,07,29,12,06,17.50
2013,07,29,12,07,17.40
2013,07,29,12,09,17.30
2013,07,29,12,10,17.20
2013,07,29,12,11,17.20
2013,07,29,12,13,17.20
2013,07,29,12,14,17.00
2013,07,29,12,15,16.90
2013,07,29,12,16,16.80
2013,07,29,12,17,16.80
2013,07,29,12,19,16.70
2013,07,29,12,20,16.60
2013,07,29,12,21,16.50
2013,07,29,12,22,16.40
2013,07,29,12,24,16.30
2013,07,29,12,25,16.10
2013,07,29,12,26,16.00
2013,07,29,12,27,15.90
2013,07,29,12,29,15.80
2013,07,29,12,30,15.80
2013,07,29,12,31,15.80
2013,07,29,12,32,15.70
2013,07,29,12,33,15.70
2013,07,29,12,34,15.70
2013,07,29,12,35,15.70
2013,07,29,12,36,15.60
2013,07,29,12,37,15.70
2013,07,29,12,38,15.70
2013,07,29,12,40,15.80
2013,07,29,12,41,15.80
2013,07,29,12,42,15.80
2013,07,29,12,43,15.80
2013,07,29,12,45,16.00
2013,07,29,12,46,16.10
2013,07,29,12,47,16.20
2013,07,29,12,48,16.20
2013,07,29,12,49,16.20
2013,07,29,12,51,16.10
2013,07,29,12,52,16.10
2013,07,29,12,53,16.10
2013,07,29,12,54,16.10
2013,07,29,12,55,16.10
2013,07,29,12,56,16.10
2013,07,29,12,57,16.20
2013,07,29,12,58,16.20
2013,07,29,12,59,16.20
2013,07,29,13,00,16.30
2013,07,29,13,01,16.30
2013,07,29,13,02,16.30
2013,07,29,13,03,16.40
2013,07,29,13,04,16.40
2013,07,29,13,05,16.50
2013,07,29,13,06,16.50
2013,07,29,13,07,16.60
2013,07,29,13,08,16.60
2013,07,29,13,09,16.70
2013,07,29,13,10,16.70
2013,07,29,13,11,16.80
2013,07,29,13,12,16.80
2013,07,29,13,13,16.80
2013,07,29,13,14,16.80
2013,07,29,13,16,16.80
2013,07,29,13,17,16.60
2013,07,29,13,18,16.60
2013,07,29,13,20,16.50
2013,07,29,13,21,16.40
2013,07,29,13,22,16.40
2013,07,29,13,24,16.50
2013,07,29,13,25,16.60
2013,07,29,13,26,16.60
2013,07,29,13,27,16.60
2013,07,29,13,28,16.60
2013,07,29,13,29,16.70
2013,07,29,13,30,16.70
2013,07,29,13,31,16.80
2013,07,29,13,32,16.90
2013,07,29,13,33,17.10
2013,07,29,13,34,17.20
2013,07,29,13,35,17.30
2013,07,29,13,36,17.40
2013,07,29,13,37,17.50
2013,07,29,13,39,17.60
2013,07,29,13,40,17.60
2013,07,29,13,41,17.60
2013,07,29,13,42,17.60
2013,07,29,13,43,17.60
2013,07,29,13,44,17.60
2013,07,29,13,45,17.50
2013,07,29,13,46,17.40
2013,07,29,13,47,17.40
2013,07,29,13,48,17.50
2013,07,29,13,50,17.60
2013,07,29,13,51,17.70
2013,07,29,13,52,17.80
2013,07,29,13,53,17.80
2013,07,29,13,54,17.80
2013,07,29,13,55,17.90
2013,07,29,13,56,18.00
2013,07,29,13,57,18.10
2013,07,29,13,58,18.20
2013,07,29,13,59,18.20
2013,07,29,14,00,18.30
2013,07,29,14,01,18.40
2013,07,29,14,02,18.40
2013,07,29,14,04,18.40
2013,07,29,14,05,18.60
2013,07,29,14,06,18.60
2013,07,29,14,07,18.70
2013,07,29,14,09,18.70
2013,07,29,14,10,18.80
2013,07,29,14,11,18.80
2013,07,29,14,12,18.90
2013,07,29,14,13,19.00
2013,07,29,14,14,19.10
2013,07,29,14,15,19.10
2013,07,29,14,16,19.20
2013,07,29,14,17,19.20
2013,07,29,14,18,19.10
2013,07,29,14,19,19.10
2013,07,29,14,20,19.00
2013,07,29,14,21,19.00
2013,07,29,14,22,19.00
2013,07,29,14,23,19.00
2013,07,29,14,24,18.90
2013,07,29,14,25,18.90
2013,07,29,14,26,18.90
2013,07,29,14,28,18.90
2013,07,29,14,29,18.90
2013,07,29,14,30,18.90
2013,07,29,14,31,18.90
2013,07,29,14,33,18.90
2013,07,29,14,34,18.90
2013,07,29,14,35,18.90
2013,07,29,14,36,18.90
2013,07,29,14,37,18.80
2013,07,29,14,38,18.90
2013,07,29,14,39,18.90
2013,07,29,14,40,19.10
2013,07,29,14,41,19.20
2013,07,29,14,43,19.30
2013,07,29,14,44,19.50
2013,07,29,14,45,19.70
2013,07,29,14,46,19.80
2013,07,29,14,48,19.90
2013,07,29,14,49,20.10
2013,07,29,14,50,20.30
2013,07,29,14,51,20.30
2013,07,29,14,52,20.50
2013,07,29,14,53,20.60
2013,07,29,14,55,20.60
2013,07,29,14,56,20.70
2013,07,29,14,57,20.70
2013,07,29,14,58,20.70
2013,07,29,15,00,20.70
2013,07,29,15,01,20.80
2013,07,29,15,02,20.80
2013,07,29,15,03,20.80
2013,07,29,15,05,20.90
2013,07,29,15,06,21.10
2013,07,29,15,07,21.20
2013,07,29,15,08,21.20
2013,07,29,15,10,21.30
2013,07,29,15,11,21.30
2013,07,29,15,12,21.30
2013,07,29,15,13,21.30
2013,07,29,15,15,21.30
2013,07,29,15,16,21.40
2013,07,29,15,17,21.50
2013,07,29,15,18,21.60
2013,07,29,15,20,21.60
2013,07,29,15,21,21.60
2013,07,29,15,22,21.70
2013,07,29,15,24,21.70
2013,07,29,15,25,21.70
2013,07,29,15,26,21.80
2013,07,29,15,27,21.80
2013,07,29,15,29,21.90
2013,07,29,15,30,21.80
2013,07,29,15,31,21.70
2013,07,29,15,33,21.70
2013,07,29,15,34,21.70
2013,07,29,15,35,21.80
2013,07,29,15,36,21.90
2013,07,29,15,38,21.90
2013,07,29,15,39,22.10
2013,07,29,15,40,22.20
2013,07,29,15,41,22.20
2013,07,29,15,43,22.20
2013,07,29,15,44,22.20
2013,07,29,15,45,22.20
2013,07,29,15,46,22.30
2013,07,29,15,47,22.30
2013,07,29,15,48,22.30
2013,07,29,15,49,22.40
2013,07,29,15,50,22.40
2013,07,29,15,51,22.40
2013,07,29,15,52,22.30
2013,07,29,15,54,22.40
2013,07,29,15,55,22.40
2013,07,29,15,56,22.40
2013,07,29,15,57,22.30
2013,07,29,15,59,22.20
2013,07,29,16,00,22.20
2013,07,29,16,01,22.20
2013,07,29,16,02,22.20
2013,07,29,16,04,22.20
2013,07,29,16,05,22.20
2013,07,29,16,06,22.20
2013,07,29,16,07,22.10
2013,07,29,16,09,22.10
2013,07,29,16,10,22.00
2013,07,29,16,11,21.90
2013,07,29,16,12,21.80
2013,07,29,16,14,21.70
2013,07,29,16,15,21.70
2013,07,29,16,16,21.80
2013,07,29,16,17,21.80
2013,07,29,16,19,21.80
2013,07,29,16,20,21.80
2013,07,29,16,21,21.80
2013,07,29,16,22,21.80
2013,07,29,16,23,21.90
2013,07,29,16,24,21.90
2013,07,29,16,25,21.90
2013,07,29,16,26,22.00
2013,07,29,16,27,22.10
2013,07,29,16,28,22.20
2013,07,29,16,30,22.20
2013,07,29,16,31,22.20
2013,07,29,16,32,22.20
2013,07,29,16,33,22.10
2013,07,29,16,35,22.10
2013,07,29,16,36,22.10
2013,07,29,16,37,22.10
2013,07,29,16,38,22.10
2013,07,29,16,39,22.10
2013,07,29,16,41,22.10
2013,07,29,16,42,22.10
2013,07,29,16,43,22.10
2013,07,29,16,44,22.10
2013,07,29,16,46,22.10
2013,07,29,16,47,22.10
2013,07,29,16,48,22.10
2013,07,29,16,49,22.10
2013,07,29,16,50,22.00
2013,07,29,16,51,22.00
2013,07,29,16,52,22.00
2013,07,29,16,54,22.10
2013,07,29,16,55,22.10
2013,07,29,16,56,22.10
2013,07,29,16,57,22.10
2013,07,29,16,59,22.10
2013,07,29,17,00,22.20
2013,07,29,17,01,22.20
2013,07,29,17,02,22.20
2013,07,29,17,03,22.30
2013,07,29,17,05,22.30
2013,07,29,17,06,22.30
2013,07,29,17,07,22.40
2013,07,29,17,08,22.40
2013,07,29,17,09,22.40
2013,07,29,17,10,22.40
2013,07,29,17,11,22.30
2013,07,29,17,12,22.30
2013,07,29,17,13,22.30
2013,07,29,17,15,22.30
2013,07,29,17,16,22.20
2013,07,29,17,17,22.30
2013,07,29,17,19,22.30
2013,07,29,17,20,22.40
2013,07,29,17,21,22.40
2013,07,29,17,22,22.40
2013,07,29,17,23,22.50
2013,07,29,17,24,22.60
2013,07,29,17,25,22.60
2013,07,29,17,26,22.60
2013,07,29,17,27,22.70
2013,07,29,17,28,22.70
2013,07,29,17,29,22.80
2013,07,29,17,30,22.80
2013,07,29,17,31,22.80
2013,07,29,17,33,22.80
2013,07,29,17,34,22.80
2013,07,29,17,35,22.70
2013,07,29,17,36,22.80
2013,07,29,17,37,22.80
2013,07,29,17,38,22.80
2013,07,29,17,39,22.80
2013,07,29,17,40,22.70
2013,07,29,17,42,22.70
2013,07,29,17,43,22.70
2013,07,29,17,44,22.70
2013,07,29,17,45,22.70
2013,07,29,17,46,22.70
2013,07,29,17,47,22.70
2013,07,29,17,48,22.70
2013,07,29,17,49,22.70
2013,07,29,17,51,22.70
2013,07,29,17,52,22.60
2013,07,29,17,53,22.60
2013,07,29,17,54,22.60
2013,07,29,17,55,22.60
2013,07,29,17,57,22.60
2013,07,29,17,58,22.60
2013,07,29,17,59,22.60
2013,07,29,18,00,22.60
2013,07,29,18,01,22.60
2013,07,29,18,02,22.60
2013,07,29,18,03,22.60
2013,07,29,18,04,22.60
2013,07,29,18,06,22.60
2013,07,29,18,07,22.60
2013,07,29,18,08,22.50
2013,07,29,18,09,22.40
2013,07,29,18,10,22.40
2013,07,29,18,11,22.30
2013,07,29,18,12,22.30
2013,07,29,18,13,22.30
2013,07,29,18,14,22.20
2013,07,29,18,16,22.20
2013,07,29,18,17,22.20
2013,07,29,18,18,22.20
2013,07,29,18,19,22.20
2013,07,29,18,20,22.20
2013,07,29,18,21,22.20
2013,07,29,18,22,22.20
2013,07,29,18,23,22.20
2013,07,29,18,25,22.10
2013,07,29,18,26,22.10
2013,07,29,18,27,22.00
2013,07,29,18,28,21.90
2013,07,29,18,30,21.80
2013,07,29,18,31,21.80
2013,07,29,18,32,21.70
2013,07,29,18,33,21.70
2013,07,29,18,34,21.80
2013,07,29,18,35,21.80
2013,07,29,18,36,21.70
2013,07,29,18,37,21.70
2013,07,29,18,38,21.60
2013,07,29,18,39,21.60
2013,07,29,18,41,21.40
2013,07,29,18,42,21.40
2013,07,29,18,43,21.40
2013,07,29,18,44,21.30
2013,07,29,18,46,21.30
2013,07,29,18,47,21.40
2013,07,29,18,48,21.40
2013,07,29,18,49,21.40
2013,07,29,18,51,21.50
2013,07,29,18,52,21.50
2013,07,29,18,53,21.40
2013,07,29,18,54,21.40
2013,07,29,18,56,21.40
2013,07,29,18,57,21.40
2013,07,29,18,58,21.40
2013,07,29,18,59,21.40
2013,07,29,19,01,21.30
2013,07,29,19,02,21.40
2013,07,29,19,03,21.40
2013,07,29,19,05,21.40
2013,07,29,19,06,21.40
2013,07,29,19,07,21.40
2013,07,29,19,09,21.40
2013,07,29,19,10,21.40
2013,07,29,19,11,21.50
2013,07,29,19,12,21.60
2013,07,29,19,13,21.60
2013,07,29,19,15,21.60
2013,07,29,19,16,21.60
2013,07,29,19,17,21.50
2013,07,29,19,18,21.50
2013,07,29,19,19,21.40
2013,07,29,19,21,21.40
2013,07,29,19,22,21.30
2013,07,29,19,23,21.30
2013,07,29,19,24,21.30
2013,07,29,19,26,21.30
2013,07,29,19,27,21.20
2013,07,29,19,28,21.20
2013,07,29,19,29,21.20
2013,07,29,19,31,21.10
2013,07,29,19,32,21.10
2013,07,29,19,33,21.10
2013,07,29,19,34,21.00
2013,07,29,19,36,20.90
2013,07,29,19,37,20.90
2013,07,29,19,38,20.80
2013,07,29,19,40,20.80
2013,07,29,19,41,20.80
2013,07,29,19,42,20.80
2013,07,29,19,43,20.80
2013,07,29,19,44,20.80
2013,07,29,19,45,20.80
2013,07,29,19,46,20.80
2013,07,29,19,47,20.80
2013,07,29,19,48,20.80
2013,07,29,19,49,20.80
2013,07,29,19,50,20.80
2013,07,29,19,51,20.80
2013,07,29,19,52,20.80
2013,07,29,19,53,20.80
2013,07,29,19,54,20.80
2013,07,29,19,55,20.80
2013,07,29,19,56,20.80
2013,07,29,19,57,20.80
2013,07,29,19,58,20.80
2013,07,29,19,59,20.80
2013,07,29,20,01,20.80
2013,07,29,20,02,20.80
2013,07,29,20,03,20.80
2013,07,29,20,04,20.70
2013,07,29,20,06,20.70
2013,07,29,20,07,20.70
2013,07,29,20,08,20.70
2013,07,29,20,10,20.70
2013,07,29,20,11,20.60
2013,07,29,20,12,20.60
2013,07,29,20,13,20.60
2013,07,29,20,14,20.50
2013,07,29,20,15,20.40
2013,07,29,20,16,20.40
2013,07,29,20,17,20.30
2013,07,29,20,18,20.30
2013,07,29,20,20,20.30
2013,07,29,20,21,20.20
2013,07,29,20,22,20.20
2013,07,29,20,23,20.20
2013,07,29,20,24,20.10
2013,07,29,20,26,20.10
2013,07,29,20,27,20.00
2013,07,29,20,28,20.00
2013,07,29,20,29,19.90
2013,07,29,20,31,19.90
2013,07,29,20,32,19.90
2013,07,29,20,33,19.80
2013,07,29,20,35,19.80
2013,07,29,20,36,19.80
2013,07,29,20,37,19.70
2013,07,29,20,38,19.70
2013,07,29,20,40,19.70
2013,07,29,20,41,19.60
2013,07,29,20,42,19.60